Time,TemperatureF,DewpointF,PressureIn,WindDirection,WindDirectionDegrees,WindSpeedMPH,WindSpeedGustMPH,Humidity,HourlyPrecipIn,Conditions,Clouds,dailyrainin,SoftwareType,DateUTC
2013-01-01 00:02:00,49.0,-99.9,30.23,SSE,163,3.0,4.0,-999,-99.99,,,-99.99,,2013-01-01 08:02:00,
2013-01-01 00:12:00,49.0,-99.9,30.24,South,172,2.0,5.0,-999,-99.99,,,-99.99,,2013-01-01 08:12:00,
2013-01-01 00:22:00,49.0,-99.9,30.24,WSW,241,2.0,3.0,-999,-99.99,,,-99.99,,2013-01-01 08:22:00,
2013-01-01 00:32:00,49.0,-99.9,30.24,West,279,3.0,4.0,-999,-99.99,,,-99.99,,2013-01-01 08:32:00,
2013-01-01 00:42:00,49.0,-99.9,30.25,WNW,293,3.0,4.0,-999,-99.99,,,-99.99,,2013-01-01 08:42:00,
2013-01-01 00:53:00,49.0,-99.9,30.25,West,268,3.0,4.0,-999,-99.99,,,-99.99,,2013-01-01 08:53:00,
2013-01-01 01:02:00,49.0,-99.9,30.25,WSW,255,1.0,2.0,-999,-99.99,,,-99.99,,2013-01-01 09:02:00,
2013-01-01 01:12:00,49.0,-99.9,30.25,WNW,291,1.0,1.0,-999,-99.99,,,-99.99,,2013-01-01 09:12:00,
2013-01-01 01:22:00,49.0,-99.9,30.24,SW,221,1.0,2.0,-999,-99.99,,,-99.99,,2013-01-01 09:22:00,
2013-01-01 01:32:00,49.0,-99.9,30.24,West,259,2.0,2.0,-999,-99.99,,,-99.99,,2013-01-01 09:32:00,
2013-01-01 01:42:00,49.0,-99.9,30.22,South,184,4.0,5.0,-999,-99.99,,,-99.99,,2013-01-01 09:42:00,
2013-01-01 01:53:00,50.0,-99.9,30.22,ESE,108,2.0,5.0,-999,-99.99,,,-99.99,,2013-01-01 09:53:00,
2013-01-01 02:02:00,49.0,-99.9,30.23,ESE,114,1.0,3.0,-999,-99.99,,,-99.99,,2013-01-01 10:02:00,
2013-01-01 02:12:00,49.0,-99.9,30.23,South,189,0.0,2.0,-999,-99.99,,,-99.99,,2013-01-01 10:12:00,
2013-01-01 02:22:00,49.0,-99.9,30.23,North,355,-999.0,1.0,-999,-99.99,,,-99.99,,2013-01-01 10:22:00,
2013-01-01 02:33:00,48.0,-99.9,30.23,West,261,-999.0,0.0,-999,-99.99,,,-99.99,,2013-01-01 10:33:00,
2013-01-01 02:43:00,48.0,-99.9,30.23,West,262,-999.0,0.0,-999,-99.99,,,-99.99,,2013-01-01 10:43:00,
2013-01-01 02:53:00,48.0,-99.9,30.23,ESE,121,-999.0,1.0,-999,-99.99,,,-99.99,,2013-01-01 10:53:00,
2013-01-01 03:02:00,48.0,-99.9,30.23,NNE,28,-999.0,4.0,-999,-99.99,,,-99.99,,2013-01-01 11:02:00,
2013-01-01 03:12:00,48.0,-99.9,30.23,West,278,2.0,2.0,-999,-99.99,,,-99.99,,2013-01-01 11:12:00,
2013-01-01 03:23:00,48.0,-99.9,30.23,WNW,288,1.0,2.0,-999,-99.99,,,-99.99,,2013-01-01 11:23:00,
2013-01-01 03:33:00,48.0,-99.9,30.24,WNW,286,2.0,2.0,-999,-99.99,,,-99.99,,2013-01-01 11:33:00,
2013-01-01 03:43:00,48.0,-99.9,30.23,West,271,1.0,3.0,-999,-99.99,,,-99.99,,2013-01-01 11:43:00,
2013-01-01 03:53:00,48.0,-99.9,30.24,NW,318,1.0,2.0,-999,-99.99,,,-99.99,,2013-01-01 11:53:00,
2013-01-01 04:03:00,48.0,-99.9,30.24,West,277,1.0,2.0,-999,-99.99,,,-99.99,,2013-01-01 12:03:00,
2013-01-01 04:12:00,48.0,-99.9,30.24,SW,234,1.0,1.0,-999,-99.99,,,-99.99,,2013-01-01 12:12:00,
2013-01-01 04:22:00,47.0,-99.9,30.24,North,5,6.0,6.0,-999,-99.99,,,-99.99,,2013-01-01 12:22:00,
2013-01-01 04:33:00,47.0,-99.9,30.24,North,355,7.0,8.0,-999,-99.99,,,-99.99,,2013-01-01 12:33:00,
2013-01-01 04:43:00,47.0,-99.9,30.24,North,4,6.0,9.0,-999,-99.99,,,-99.99,,2013-01-01 12:43:00,
2013-01-01 04:53:00,47.0,-99.9,30.24,North,1,6.0,6.0,-999,-99.99,,,-99.99,,2013-01-01 12:53:00,
2013-01-01 05:03:00,47.0,-99.9,30.23,North,6,7.0,8.0,-999,-99.99,,,-99.99,,2013-01-01 13:03:00,
2013-01-01 05:12:00,48.0,-99.9,30.24,NNE,18,6.0,8.0,-999,-99.99,,,-99.99,,2013-01-01 13:12:00,
2013-01-01 05:22:00,47.0,-99.9,30.24,NNE,20,7.0,8.0,-999,-99.99,,,-99.99,,2013-01-01 13:22:00,
2013-01-01 05:33:00,47.0,-99.9,30.23,NNE,19,5.0,6.0,-999,-99.99,,,-99.99,,2013-01-01 13:33:00,
2013-01-01 05:43:00,47.0,-99.9,30.23,North,8,5.0,6.0,-999,-99.99,,,-99.99,,2013-01-01 13:43:00,
2013-01-01 05:53:00,47.0,-99.9,30.23,North,8,4.0,5.0,-999,-99.99,,,-99.99,,2013-01-01 13:53:00,
2013-01-01 06:03:00,47.0,-99.9,30.23,NNE,20,7.0,9.0,-999,-99.99,,,-99.99,,2013-01-01 14:03:00,
2013-01-01 06:12:00,47.0,-99.9,30.24,NNE,25,10.0,12.0,-999,-99.99,,,-99.99,,2013-01-01 14:12:00,
2013-01-01 06:22:00,47.0,-99.9,30.24,NNE,19,11.0,12.0,-999,-99.99,,,-99.99,,2013-01-01 14:22:00,
2013-01-01 06:33:00,47.0,-99.9,30.24,NNE,33,9.0,13.0,-999,-99.99,,,-99.99,,2013-01-01 14:33:00,
2013-01-01 06:43:00,46.0,-99.9,30.24,NNE,24,9.0,10.0,-999,-99.99,,,-99.99,,2013-01-01 14:43:00,
2013-01-01 06:53:00,47.0,-99.9,30.25,NNE,25,9.0,10.0,-999,-99.99,,,-99.99,,2013-01-01 14:53:00,
2013-01-01 07:03:00,47.0,-99.9,30.24,NNE,26,8.0,10.0,-999,-99.99,,,-99.99,,2013-01-01 15:03:00,
2013-01-01 07:13:00,47.0,-99.9,30.25,NE,34,9.0,12.0,-999,-99.99,,,-99.99,,2013-01-01 15:13:00,
2013-01-01 07:22:00,47.0,-99.9,30.25,NE,41,9.0,11.0,-999,-99.99,,,-99.99,,2013-01-01 15:22:00,
2013-01-01 07:33:00,48.0,-99.9,30.25,ENE,65,11.0,13.0,-999,-99.99,,,-99.99,,2013-01-01 15:33:00,
2013-01-01 07:43:00,47.0,-99.9,30.25,NE,54,9.0,12.0,-999,-99.99,,,-99.99,,2013-01-01 15:43:00,
2013-01-01 07:53:00,47.0,-99.9,30.25,NE,52,9.0,11.0,-999,-99.99,,,-99.99,,2013-01-01 15:53:00,
2013-01-01 08:02:00,47.0,-99.9,30.25,NNE,28,8.0,10.0,-999,-99.99,,,-99.99,,2013-01-01 16:02:00,
2013-01-01 08:12:00,46.0,-99.9,30.25,NNE,27,10.0,12.0,-999,-99.99,,,-99.99,,2013-01-01 16:12:00,
2013-01-01 08:22:00,46.0,-99.9,30.26,NNE,29,8.0,12.0,-999,-99.99,,,-99.99,,2013-01-01 16:22:00,
2013-01-01 08:33:00,46.0,-99.9,30.26,NNE,33,9.0,11.0,-999,-99.99,,,-99.99,,2013-01-01 16:33:00,
2013-01-01 08:43:00,46.0,-99.9,30.27,NE,38,9.0,12.0,-999,-99.99,,,-99.99,,2013-01-01 16:43:00,
2013-01-01 08:53:00,46.0,-99.9,30.27,NE,41,9.0,12.0,-999,-99.99,,,-99.99,,2013-01-01 16:53:00,
2013-01-01 09:03:00,46.0,-99.9,30.26,NNE,33,9.0,10.0,-999,-99.99,,,-99.99,,2013-01-01 17:03:00,
2013-01-01 09:12:00,46.0,-99.9,30.27,NE,36,10.0,13.0,-999,-99.99,,,-99.99,,2013-01-01 17:12:00,
2013-01-01 09:23:00,46.0,-99.9,30.27,NE,36,10.0,14.0,-999,-99.99,,,-99.99,,2013-01-01 17:23:00,
2013-01-01 09:33:00,47.0,-99.9,30.27,NE,40,9.0,13.0,-999,-99.99,,,-99.99,,2013-01-01 17:33:00,
2013-01-01 09:43:00,47.0,-99.9,30.27,ENE,69,11.0,12.0,-999,-99.99,,,-99.99,,2013-01-01 17:43:00,
2013-01-01 09:53:00,47.0,-99.9,30.27,East,90,9.0,11.0,-999,-99.99,,,-99.99,,2013-01-01 17:53:00,
2013-01-01 10:03:00,47.0,-99.9,30.27,ENE,64,10.0,12.0,-999,-99.99,,,-99.99,,2013-01-01 18:03:00,
2013-01-01 10:13:00,47.0,-99.9,30.27,ENE,62,7.0,10.0,-999,-99.99,,,-99.99,,2013-01-01 18:13:00,
2013-01-01 10:23:00,48.0,-99.9,30.27,NE,46,6.0,8.0,-999,-99.99,,,-99.99,,2013-01-01 18:23:00,
2013-01-01 10:33:00,48.0,-99.9,30.28,NE,37,8.0,10.0,-999,-99.99,,,-99.99,,2013-01-01 18:33:00,
2013-01-01 10:43:00,48.0,-99.9,30.29,NE,36,7.0,9.0,-999,-99.99,,,-99.99,,2013-01-01 18:43:00,
2013-01-01 10:53:00,48.0,-99.9,30.28,NE,37,6.0,9.0,-999,-99.99,,,-99.99,,2013-01-01 18:53:00,
2013-01-01 11:02:00,49.0,-99.9,30.28,ENE,62,2.0,4.0,-999,-99.99,,,-99.99,,2013-01-01 19:02:00,
2013-01-01 11:12:00,48.0,-99.9,30.27,NNE,12,5.0,6.0,-999,-99.99,,,-99.99,,2013-01-01 19:12:00,
2013-01-01 11:22:00,49.0,-99.9,30.28,NNE,16,4.0,6.0,-999,-99.99,,,-99.99,,2013-01-01 19:22:00,
2013-01-01 11:33:00,49.0,-99.9,30.27,NE,49,6.0,8.0,-999,-99.99,,,-99.99,,2013-01-01 19:33:00,
2013-01-01 11:43:00,50.0,-99.9,30.27,ENE,64,4.0,6.0,-999,-99.99,,,-99.99,,2013-01-01 19:43:00,
2013-01-01 11:53:00,49.0,-99.9,30.26,ENE,60,6.0,8.0,-999,-99.99,,,-99.99,,2013-01-01 19:53:00,
2013-01-01 12:02:00,49.0,-99.9,30.26,NNE,16,5.0,8.0,-999,-99.99,,,-99.99,,2013-01-01 20:02:00,
2013-01-01 12:13:00,50.0,-99.9,30.26,North,349,1.0,3.0,-999,-99.99,,,-99.99,,2013-01-01 20:13:00,
2013-01-01 12:23:00,51.0,-99.9,30.26,NE,48,3.0,4.0,-999,-99.99,,,-99.99,,2013-01-01 20:23:00,
2013-01-01 12:32:00,50.0,-99.9,30.26,NNE,29,9.0,14.0,-999,-99.99,,,-99.99,,2013-01-01 20:32:00,
2013-01-01 12:43:00,51.0,-99.9,30.26,NE,54,12.0,15.0,-999,-99.99,,,-99.99,,2013-01-01 20:43:00,
2013-01-01 12:53:00,51.0,-99.9,30.25,NE,51,11.0,15.0,-999,-99.99,,,-99.99,,2013-01-01 20:53:00,
2013-01-01 13:03:00,51.0,-99.9,30.25,NE,50,10.0,14.0,-999,-99.99,,,-99.99,,2013-01-01 21:03:00,
2013-01-01 13:13:00,51.0,-99.9,30.25,ENE,62,10.0,12.0,-999,-99.99,,,-99.99,,2013-01-01 21:13:00,
2013-01-01 13:22:00,51.0,-99.9,30.24,ENE,69,10.0,12.0,-999,-99.99,,,-99.99,,2013-01-01 21:22:00,
2013-01-01 13:33:00,51.0,-99.9,30.24,ENE,62,11.0,15.0,-999,-99.99,,,-99.99,,2013-01-01 21:33:00,
2013-01-01 13:43:00,51.0,-99.9,30.24,ENE,60,9.0,12.0,-999,-99.99,,,-99.99,,2013-01-01 21:43:00,
2013-01-01 13:53:00,52.0,-99.9,30.24,ENE,62,8.0,10.0,-999,-99.99,,,-99.99,,2013-01-01 21:53:00,
2013-01-01 14:03:00,52.0,-99.9,30.24,ENE,73,9.0,11.0,-999,-99.99,,,-99.99,,2013-01-01 22:03:00,
2013-01-01 14:12:00,53.0,-99.9,30.24,ENE,60,11.0,14.0,-999,-99.99,,,-99.99,,2013-01-01 22:12:00,
2013-01-01 14:23:00,52.0,-99.9,30.23,ENE,68,10.0,14.0,-999,-99.99,,,-99.99,,2013-01-01 22:23:00,
2013-01-01 14:33:00,53.0,-99.9,30.23,ENE,68,12.0,14.0,-999,-99.99,,,-99.99,,2013-01-01 22:33:00,
2013-01-01 14:43:00,53.0,-99.9,30.23,ENE,68,12.0,14.0,-999,-99.99,,,-99.99,,2013-01-01 22:43:00,
2013-01-01 14:53:00,53.0,-99.9,30.23,ENE,72,13.0,14.0,-999,-99.99,,,-99.99,,2013-01-01 22:53:00,
2013-01-01 15:03:00,53.0,-99.9,30.23,ENE,67,10.0,13.0,-999,-99.99,,,-99.99,,2013-01-01 23:03:00,
2013-01-01 15:13:00,54.0,-99.9,30.23,ENE,74,11.0,12.0,-999,-99.99,,,-99.99,,2013-01-01 23:13:00,
2013-01-01 15:22:00,54.0,-99.9,30.23,East,79,12.0,14.0,-999,-99.99,,,-99.99,,2013-01-01 23:22:00,
2013-01-01 15:33:00,54.0,-99.9,30.22,ENE,78,10.0,12.0,-999,-99.99,,,-99.99,,2013-01-01 23:33:00,
2013-01-01 15:42:00,54.0,-99.9,30.23,ENE,63,9.0,12.0,-999,-99.99,,,-99.99,,2013-01-01 23:42:00,
2013-01-01 15:53:00,54.0,-99.9,30.23,ENE,77,10.0,13.0,-999,-99.99,,,-99.99,,2013-01-01 23:53:00,
2013-01-01 16:03:00,54.0,-99.9,30.23,East,79,10.0,12.0,-999,-99.99,,,-99.99,,2013-01-02 00:03:00,
2013-01-01 16:12:00,54.0,-99.9,30.22,ENE,77,8.0,10.0,-999,-99.99,,,-99.99,,2013-01-02 00:12:00,
2013-01-01 16:22:00,54.0,-99.9,30.22,ENE,74,9.0,10.0,-999,-99.99,,,-99.99,,2013-01-02 00:22:00,
2013-01-01 16:33:00,54.0,-99.9,30.22,NE,54,9.0,10.0,-999,-99.99,,,-99.99,,2013-01-02 00:33:00,
2013-01-01 16:43:00,54.0,-99.9,30.22,ENE,74,6.0,10.0,-999,-99.99,,,-99.99,,2013-01-02 00:43:00,
2013-01-01 16:53:00,54.0,-99.9,30.22,ESE,114,5.0,9.0,-999,-99.99,,,-99.99,,2013-01-02 00:53:00,
2013-01-01 17:02:00,54.0,-99.9,30.22,ESE,120,8.0,9.0,-999,-99.99,,,-99.99,,2013-01-02 01:02:00,
2013-01-01 17:12:00,54.0,-99.9,30.22,ESE,120,8.0,10.0,-999,-99.99,,,-99.99,,2013-01-02 01:12:00,
2013-01-01 17:22:00,53.0,-99.9,30.22,ESE,118,7.0,9.0,-999,-99.99,,,-99.99,,2013-01-02 01:22:00,
2013-01-01 17:33:00,53.0,-99.9,30.21,ESE,118,6.0,7.0,-999,-99.99,,,-99.99,,2013-01-02 01:33:00,
2013-01-01 17:42:00,53.0,-99.9,30.21,SE,135,5.0,7.0,-999,-99.99,,,-99.99,,2013-01-02 01:42:00,
2013-01-01 17:53:00,53.0,-99.9,30.21,SE,137,4.0,7.0,-999,-99.99,,,-99.99,,2013-01-02 01:53:00,
2013-01-01 18:02:00,53.0,-99.9,30.22,SE,124,3.0,4.0,-999,-99.99,,,-99.99,,2013-01-02 02:02:00,
2013-01-01 18:12:00,53.0,-99.9,30.22,SE,128,6.0,7.0,-999,-99.99,,,-99.99,,2013-01-02 02:12:00,
2013-01-01 18:22:00,52.0,-99.9,30.22,ESE,118,7.0,9.0,-999,-99.99,,,-99.99,,2013-01-02 02:22:00,
2013-01-01 18:33:00,53.0,-99.9,30.22,SE,125,9.0,11.0,-999,-99.99,,,-99.99,,2013-01-02 02:33:00,
2013-01-01 18:43:00,52.0,-99.9,30.22,ESE,122,8.0,10.0,-999,-99.99,,,-99.99,,2013-01-02 02:43:00,
2013-01-01 18:53:00,52.0,-99.9,30.22,ESE,123,8.0,10.0,-999,-99.99,,,-99.99,,2013-01-02 02:53:00,
2013-01-01 19:02:00,52.0,-99.9,30.22,ESE,114,8.0,11.0,-999,-99.99,,,-99.99,,2013-01-02 03:02:00,
2013-01-01 19:12:00,52.0,-99.9,30.23,ESE,113,9.0,10.0,-999,-99.99,,,-99.99,,2013-01-02 03:12:00,
2013-01-01 19:22:00,52.0,-99.9,30.24,NE,37,6.0,7.0,-999,-99.99,,,-99.99,,2013-01-02 03:22:00,
2013-01-01 19:32:00,50.0,-99.9,30.24,WNW,300,5.0,7.0,-999,-99.99,,,-99.99,,2013-01-02 03:32:00,
2013-01-01 19:42:00,49.0,-99.9,30.25,West,271,3.0,5.0,-999,-99.99,,,-99.99,,2013-01-02 03:42:00,
2013-01-01 19:53:00,49.0,-99.9,30.24,WNW,282,3.0,4.0,-999,-99.99,,,-99.99,,2013-01-02 03:53:00,
2013-01-01 20:03:00,48.0,-99.9,30.24,WNW,298,2.0,3.0,-999,-99.99,,,-99.99,,2013-01-02 04:03:00,
2013-01-01 20:12:00,48.0,-99.9,30.24,West,270,3.0,5.0,-999,-99.99,,,-99.99,,2013-01-02 04:12:00,
2013-01-01 20:22:00,49.0,-99.9,30.25,WSW,251,3.0,6.0,-999,-99.99,,,-99.99,,2013-01-02 04:22:00,
2013-01-01 20:33:00,50.0,-99.9,30.24,NNW,327,2.0,4.0,-999,-99.99,,,-99.99,,2013-01-02 04:33:00,
2013-01-01 20:42:00,49.0,-99.9,30.24,NW,312,2.0,3.0,-999,-99.99,,,-99.99,,2013-01-02 04:42:00,
2013-01-01 20:53:00,48.0,-99.9,30.24,WNW,286,4.0,5.0,-999,-99.99,,,-99.99,,2013-01-02 04:53:00,
2013-01-01 21:03:00,47.0,-99.9,30.24,West,279,4.0,5.0,-999,-99.99,,,-99.99,,2013-01-02 05:03:00,
2013-01-01 21:12:00,47.0,-99.9,30.24,WNW,282,4.0,6.0,-999,-99.99,,,-99.99,,2013-01-02 05:12:00,
2013-01-01 21:22:00,47.0,-99.9,30.24,West,276,6.0,8.0,-999,-99.99,,,-99.99,,2013-01-02 05:22:00,
2013-01-01 21:33:00,48.0,-99.9,30.24,WNW,285,3.0,5.0,-999,-99.99,,,-99.99,,2013-01-02 05:33:00,
2013-01-01 21:43:00,49.0,-99.9,30.24,WNW,294,4.0,5.0,-999,-99.99,,,-99.99,,2013-01-02 05:43:00,
2013-01-01 21:53:00,48.0,-99.9,30.24,West,274,3.0,5.0,-999,-99.99,,,-99.99,,2013-01-02 05:53:00,
2013-01-01 22:02:00,49.0,-99.9,30.25,WNW,284,3.0,5.0,-999,-99.99,,,-99.99,,2013-01-02 06:02:00,
2013-01-01 22:12:00,49.0,-99.9,30.25,WNW,292,3.0,6.0,-999,-99.99,,,-99.99,,2013-01-02 06:12:00,
2013-01-01 22:22:00,48.0,-99.9,30.25,West,273,1.0,4.0,-999,-99.99,,,-99.99,,2013-01-02 06:22:00,
2013-01-01 22:33:00,49.0,-99.9,30.25,West,271,2.0,4.0,-999,-99.99,,,-99.99,,2013-01-02 06:33:00,
2013-01-01 22:43:00,49.0,-99.9,30.25,NW,309,2.0,3.0,-999,-99.99,,,-99.99,,2013-01-02 06:43:00,
2013-01-01 22:53:00,49.0,-99.9,30.25,WNW,301,1.0,2.0,-999,-99.99,,,-99.99,,2013-01-02 06:53:00,
2013-01-01 23:02:00,48.0,-99.9,30.24,NNE,32,-999.0,2.0,-999,-99.99,,,-99.99,,2013-01-02 07:02:00,
2013-01-01 23:12:00,47.0,-99.9,30.24,ENE,70,4.0,5.0,-999,-99.99,,,-99.99,,2013-01-02 07:12:00,
2013-01-01 23:22:00,47.0,-99.9,30.25,ENE,60,4.0,5.0,-999,-99.99,,,-99.99,,2013-01-02 07:22:00,
2013-01-01 23:32:00,47.0,-99.9,30.25,North,11,1.0,2.0,-999,-99.99,,,-99.99,,2013-01-02 07:32:00,
2013-01-01 23:42:00,46.0,-99.9,30.24,SW,223,-999.0,2.0,-999,-99.99,,,-99.99,,2013-01-02 07:42:00,
2013-01-01 23:52:00,46.0,-99.9,30.24,East,88,-999.0,1.0,-999,-99.99,,,-99.99,,2013-01-02 07:52:00,